Anoka County, MN

10:09 AM CST on December 09, 2019 (GMT -0600)
Anoka County / Blaine Airport

Weather History for KANE - August, 2019

Change the Weather History Date:

Tuesday, August 20, 2019

  Actual Average Record
Temperature  
Mean Temperature 72 °F -  
Max Temperature 80 °F 76 °F 89 °F (2013)
Min Temperature 64 °F 57 °F 46 °F (2004)
Cooling Degree Days 7    
Growing Degree Days 22 (Base 50)    
Moisture  
Dew Point 64 °F    
Average Humidity 82    
Maximum Humidity 94    
Minimum Humidity 61    
Precipitation  
Precipitation 0.03 in - - ()
Sea Level Pressure  
Sea Level Pressure 29.96 in    
Wind  
Wind Speed 4 mph (South)    
Max Wind Speed 17 mph    
Max Gust Speed 20 mph    
Visibility 10 miles    
Events Rain , Thunderstorm    
Averages and records for this station are not official NWS values.
T = Trace of Precipitation, MM = Missing Value Source: NWS Daily Summary

Daily Weather History Graph

Daily Weather History Graph

Search for Another Location

Airport or City:

Astronomy

Aug. 20, 2019 Rise Set
Actual Time 6:20 AM CDT 8:11 PM CDT
Civil Twilight 5:48 AM CDT 8:43 PM CDT
Nautical Twilight 5:09 AM CDT 9:21 PM CDT
Astronomical Twilight 4:27 AM CDT 10:03 PM CDT
Moon 10:47 PM CDT (8/20) 11:10 AM CDT (8/20)
Length of Visible Light 14h 54m
Length of Day
13h 51m
Waning Gibbous, 77% of the Moon is Illuminated
Aug 20
Waning Gibbous
Aug 23
Last Quarter
Aug 30
New
Sep 5
First Quarter
Sep 13
Full

Hourly Weather History & Observations

Time (CDT) Temp. Heat Index Dew Point Humidity Pressure Visibility Wind Dir Wind Speed Gust Speed Precip Events Conditions
12:15 AM 66.2 °F - 60.8 °F 83% 30.00 in 10.0 mi Calm Calm - N/A   Unknown
12:19 AM 68.0 °F - 60.8 °F 78% 29.99 in 10.0 mi Calm Calm - N/A   Unknown
12:38 AM 68.0 °F - 60.8 °F 78% 29.99 in 10.0 mi Calm Calm - N/A   Unknown
12:55 AM 66.2 °F - 62.6 °F 88% 29.99 in 10.0 mi Calm Calm - N/A   Unknown
1:16 AM 66.2 °F - 64.4 °F 94% 29.99 in 10.0 mi South 3.5 mph - N/A   Unknown
1:35 AM 64.4 °F - 62.6 °F 94% 29.99 in 10.0 mi SSE 3.5 mph - N/A   Unknown
1:59 AM 66.2 °F - 62.6 °F 88% 29.98 in 10.0 mi SSE 5.8 mph - 0.01 in   Unknown
2:16 AM 66.2 °F - 64.4 °F 94% 29.98 in 10.0 mi SSE 4.6 mph - 0.01 in   Unknown
2:36 AM 66.2 °F - 64.4 °F 94% 29.98 in 10.0 mi Calm Calm - 0.01 in   Unknown
2:55 AM 66.2 °F - 64.4 °F 94% 29.97 in 10.0 mi Calm Calm - 0.01 in   Unknown
3:18 AM 66.2 °F - 64.4 °F 94% 29.94 in 10.0 mi SE 4.6 mph - N/A   Unknown
3:37 AM 66.2 °F - 64.4 °F 94% 29.93 in 10.0 mi SE 4.6 mph - N/A   Unknown
3:56 AM 66.2 °F - 64.4 °F 94% 29.92 in 10.0 mi SE 3.5 mph - N/A   Unknown
4:16 AM 66.2 °F - 62.6 °F 88% 29.91 in 10.0 mi Calm Calm - N/A   Unknown
4:35 AM 64.4 °F - 62.6 °F 94% 29.92 in 10.0 mi Calm Calm - N/A   Unknown
4:39 AM 64.4 °F - 62.6 °F 94% 29.92 in 10.0 mi Calm Calm - N/A   Unknown
4:58 AM 64.4 °F - 62.6 °F 94% 29.90 in 10.0 mi SE 3.5 mph - N/A   Unknown
5:15 AM 66.2 °F - 62.6 °F 88% 29.90 in 10.0 mi SSE 4.6 mph - N/A   Unknown
5:36 AM 66.2 °F - 62.6 °F 88% 29.89 in 10.0 mi SE 4.6 mph - N/A   Unknown
5:56 AM 66.2 °F - 62.6 °F 88% 29.89 in 10.0 mi SSE 6.9 mph - N/A   Unknown
6:19 AM 66.2 °F - 62.6 °F 88% 29.89 in 10.0 mi SSE 4.6 mph - N/A   Unknown
6:36 AM 66.2 °F - 62.6 °F 88% 29.89 in 10.0 mi SSE 6.9 mph - N/A   Unknown
6:56 AM 66.2 °F - 62.6 °F 88% 29.92 in 10.0 mi South 6.9 mph - N/A   Unknown
6:59 AM 66.2 °F - 62.6 °F 88% 29.91 in 10.0 mi SSE 8.1 mph - N/A   Mostly Cloudy
7:45 AM 66.2 °F - 64.4 °F 94% 29.92 in 10.0 mi SSE 5.8 mph - N/A   Mostly Cloudy
8:45 AM 71.6 °F - 62.6 °F 73% 29.92 in 10.0 mi SE 8.1 mph - N/A   Mostly Cloudy
9:33 AM 71.6 °F - 62.6 °F 73% 30.04 in 10.0 mi North 17.3 mph - N/A Rain , Thunderstorm Heavy Thunderstorms and Rain
9:45 AM 69.8 °F - 64.4 °F 83% 30.05 in 3.0 mi NNE 13.8 mph - N/A Rain , Thunderstorm Heavy Thunderstorms and Rain
10:45 AM 69.8 °F - 64.4 °F 83% 29.89 in 10.0 mi NW 11.5 mph - N/A   Mostly Cloudy
11:45 AM 69.8 °F - 66.2 °F 88% 29.95 in 10.0 mi SW 6.9 mph - N/A   Mostly Cloudy
12:45 PM 73.4 °F - 66.2 °F 78% 29.95 in 10.0 mi South 11.5 mph - N/A   Mostly Cloudy
12:55 PM 73.4 °F - 66.2 °F 78% 29.95 in 10.0 mi South 11.5 mph - N/A   Mostly Cloudy
1:45 PM 78.8 °F - 66.2 °F 65% 29.94 in 10.0 mi South 12.7 mph 19.6 mph N/A   Scattered Clouds
2:48 PM 80.6 °F 82.7 °F 66.2 °F 61% 29.93 in 10.0 mi SW 9.2 mph - N/A   Partly Cloudy
3:45 PM 80.6 °F 83.2 °F 68.0 °F 65% 29.94 in 10.0 mi SW 9.2 mph - N/A   Mostly Cloudy
4:45 PM 80.6 °F 83.2 °F 68.0 °F 65% 29.93 in 10.0 mi SW 9.2 mph - N/A   Mostly Cloudy
5:45 PM 80.6 °F 82.7 °F 66.2 °F 61% 29.94 in 10.0 mi WNW 11.5 mph - N/A   Mostly Cloudy
6:45 PM 80.6 °F 82.7 °F 66.2 °F 61% 29.94 in 10.0 mi WNW 9.2 mph - N/A   Mostly Cloudy
7:45 PM 78.8 °F - 66.2 °F 65% 29.95 in 10.0 mi WNW 8.1 mph - N/A   Scattered Clouds
8:45 PM 75.2 °F - 66.2 °F 73% 29.96 in 10.0 mi West 4.6 mph - N/A   Scattered Clouds
9:45 PM 75.2 °F - 66.2 °F 73% 29.98 in 10.0 mi NNW 11.5 mph - N/A   Scattered Clouds
10:16 PM 73.4 °F - 64.4 °F 73% 29.99 in 10.0 mi NNW 8.1 mph - N/A   Unknown
10:38 PM 73.4 °F - 64.4 °F 73% 30.00 in 10.0 mi NNW 9.2 mph - 0.01 in   Unknown
10:56 PM 71.6 °F - 64.4 °F 78% 30.01 in 10.0 mi NNW 6.9 mph - N/A   Unknown
11:15 PM 71.6 °F - 64.4 °F 78% 30.02 in 10.0 mi North 5.8 mph - N/A   Unknown
11:36 PM 71.6 °F - 62.6 °F 73% 30.02 in 10.0 mi North 6.9 mph - N/A   Unknown
11:55 PM 69.8 °F - 62.6 °F 78% 30.03 in 10.0 mi North 6.9 mph - N/A   Unknown
11:59 PM 69.8 °F - 62.6 °F 78% 30.03 in 10.0 mi North 5.8 mph - N/A   Unknown